Location: Unspecified
(0.0000°N, 0.0000°E)
Time: 18:31:01
(UTC+02:00)

Iridium 12 - Visible Passes

Search period start: 28 May 2017 00:00
Search period end: 07 June 2017 00:00
Orbit: 776 x 779 km, 86.4° (Epoch: 27 May)

Date Brightness Start Highest point End Pass type
(mag) Time Alt. Az. Time Alt. Az. Time Alt. Az.
28 May 5.4 21:11:15 10° N 21:16:25 67° E 21:20:48 14° S visible
29 May 6.3 20:38:27 10° NNE 20:42:57 30° E 20:47:28 10° SSE visible
29 May 8.2 22:20:30 10° NW 22:23:23 15° W 22:26:16 10° WSW visible
30 May 7.1 21:45:17 10° NNW 21:49:55 33° W 21:54:35 10° SSW visible
31 May 5.7 21:11:16 10° N 21:16:27 75° W 21:21:41 10° S visible
01 Jun 5.7 20:38:00 10° NNE 20:43:01 48° E 20:48:01 10° SSE visible
02 Jun 8.0 21:46:10 10° NW 21:49:58 21° W 21:53:48 10° SW visible
03 Jun 6.6 21:11:34 10° NNW 21:16:30 45° W 21:21:30 10° SSW visible
04 Jun 5.5 20:37:51 10° N 20:43:03 80° E 20:48:17 10° S visible
05 Jun 8.5 21:47:53 10° WNW 21:50:02 12° W 21:52:11 10° WSW visible
06 Jun 7.6 21:12:10 10° NNW 21:16:35 28° W 21:21:00 10° SSW visible
